Regional Weather Roundup
Issued by NWS Grand Forks, ND

Home | Current Version | Previous Version | Graphics & Text | Print | Product List | Glossary On
Versions: 1 2 3 4 5 6 7 8 9 10 11 12 13 14 15 16 17 18 19 20 21 22 23 24 25 26 27 28 29 30 31 32 33 34 35 36 37 38 39 40 41 42 43 44 45 46 47 48 49 50
000
ASUS43 KFGF 180131
RWRFGF
PRAIRIE TO PINES  WEATHER ROUNDUP
NATIONAL WEATHER SERVICE EASTERN NORTH DAKOTA/GRAND FORKS ND
700 PM CST WED DEC 17 2014

 **SATELLITE DATA USED TO AUGMENT SKY COVER AT AUTOMATED STATIONS**
 *****  WEATHER ACROSS EASTERN NORTH DAKOTA  *****

CITY           SKY/WX    TMP DP  RH WIND       PRES   REMARKS
GRAND FORKS    PTCLDY    10   7  87 CALM      30.32S
GRAND FRKS AFB PTCLDY     8   8  98 CALM      30.32S
DEVILS LAKE    PTCLDY    10   0  61 SE5       30.23F WCI   2
FARGO          CLEAR     12   8  84 E5        30.30F WCI   4
WAHPETON ARPT  PTCLDY    10   9  92 CALM      30.31R
$$

 ***** WEATHER ACROSS CENTRAL AND WESTERN NORTH DAKOTA  *****

CITY           SKY/WX    TMP DP  RH WIND       PRES   REMARKS
BISMARCK       PTCLDY    13  10  88 SE5       30.20S WCI   5
MINOT          MOCLDY     9   5  84 SE6       30.17F WCI  -1
JAMESTOWN      PTCLDY    10   6  84 SE5       30.25R WCI   2
MINOT AFB      PTCLDY     6   5  95 SE8       30.18S WCI  -6
GARRISON         N/A     10   7  87 SE8       30.16S WCI  -2
WILLISTON      CLOUDY    20  13  74 SE9       30.09F WCI   9
DICKINSON      CLOUDY    18  14  84 S14       30.05F WCI   4
HETTINGER      CLOUDY    17  14  88 SE9       30.07F WCI   6
$$

 *****  OTHER AIRPORT OBSERVATIONS IN OUR AREA  *****

CITY           SKY/WX    TMP DP  RH WIND       PRES   REMARKS
WALHALLA         N/A      9   9 100 CALM      30.31S
GRAFTON AIRPOR NOT AVBL
VALLEY CITY AR FAIR      10  10 100 CALM      30.26S
CANDO          FAIR       5   1  85 SE6       30.25S WCI  -6
CAVALIER APRT  FAIR      10   9  92 E3        30.31F
GWINNER        CLEAR     12  10  92 MISG      30.29S
SHEYENNE NWR     N/A      9   5  85 CALM      29.95
ROLLA          FAIR       5   1  85 S6        30.22S WCI  -6
 ***** THE ABOVE OBSERVATIONS ARE NON NWS ARE NOT QUALITY
       CONTROLLED AND MAY MIS-REPORT RAIN FOR SNOW...
$$

  *****  WEATHER ACROSS NORTHERN MINNESOTA  *****

CITY           SKY/WX    TMP DP  RH WIND       PRES   REMARKS
FLAG ISLAND    MOCLDY    12   9  85 CALM      30.30F
WARROAD        MOCLDY     9   5  85 CALM      30.31S
ROSEAU         PTCLDY    10   7  85 CALM      30.32S
HALLOCK        PTCLDY    10   7  85 CALM      30.31F
THF RVR FALLS  PTCLDY    10   9  92 CALM      30.29S
BAUDETTE       MOCLDY    11   7  84 CALM      30.29S
WASKISH        PTCLDY     9   7  92 CALM      30.29R
CROOKSTON      PTCLDY    12   9  85 CALM      30.32S
STEPHEN NDAWN    N/A     10   9  92 E5          N/A  WCI   2
GREENBUSH NDAW   N/A     14  10  85 E5          N/A  WCI   6
$$
  *****  WEATHER ACROSS CENTRAL AND WEST MINNESOTA  *****

CITY           SKY/WX    TMP DP  RH WIND       PRES   REMARKS
FOSSTON        PTCLDY     3   1  92 CALM      30.29S
BEMIDJI        PTCLDY    11   8  87 CALM      30.26S
PARK RAPIDS    PTCLDY    12   8  84 CALM      30.25S
ELBOW LAKE     FAIR      10   8  91 CALM      30.29R
WADENA         PTCLDY     9   7  92 CALM      30.27S
DETROIT LAKES  PTCLDY    12  10  92 CALM      30.28S
MOORHEAD       PTCLDY    12  12 100 CALM      30.31S
FERGUS FALLS   PTCLDY    10   7  85 CALM      30.32S
MORRIS MN      PTCLDY     9   7  92 N3        30.29R
STAPLES        PTCLDY    10   9  92 CALM      30.27S
$$
  *****  WEATHER ELSEWHERE ACROSS MINNESOTA  *****

CITY           SKY/WX    TMP DP  RH WIND       PRES   REMARKS
DULUTH         PTCLDY    18  12  77 N6        30.25F WCI  10
INTRNTL FALLS  PTCLDY    12   2  64 E6        30.31F WCI   3
ELY            MOCLDY     9   7  92 CALM      30.29F
CLOQUET        PTCLDY    12  10  92 CALM      30.27S
WHEATON        PTCLDY     7   5  92 CALM      30.33R
BRAINERD       PTCLDY     9   6  88 CALM      30.28R
HIBBING        CLEAR      8   4  83 NE3       30.27F
ALEXANDRIA     PTCLDY    13   9  84 SE3       30.27S
SAINT CLOUD    PTCLDY    13   8  81 CALM      30.30S
MINNEAPOLIS    PTCLDY    16   8  71 NE5       30.32S WCI   9
$$

  *****  WEATHER ACROSS SOUTH DAKOTA  *****

CITY           SKY/WX    TMP DP  RH WIND       PRES   REMARKS
SIOUX FALLS    PTCLDY    11   8  88 NE7       30.27F WCI   0
BROOKINGS      NOT AVBL
WATERTOWN      PTCLDY    12   7  80 SE5       30.25R WCI   4
HURON          CLOUDY    11   8  88 E3        30.27S
SISSETON         N/A      4   1  88 W3        30.29R
ABERDEEN       PTCLDY     8   4  83 S3        30.29R
MITCHELL       PTCLDY    13  10  88 E3        30.27F
PIERRE         CLOUDY    18  15  88 E13       30.17F WCI   5
MOBRIDGE       CLOUDY    19  11  70 SE12      30.16F WCI   7
RAPID CITY     CLOUDY    22  20  92 NE7       30.02R WCI  13
$$

  *****  SOME WEATHER IN NEARBY STATES *****

CITY           SKY/WX    TMP DP  RH WIND       PRES   REMARKS
GLASGOW MT     CLOUDY    23  18  81 E10       29.99S WCI  12
GREAT FALLS MT CLEAR     30  26  85 S10       29.85S WCI  21
CHEYENNE WY    PTCLDY    34  18  52 NW7       29.93R
SCOTTSBLUFF NE FOG       19  17  92 E8        29.98R VSB 1/2 WCI   9
OMAHA NE       CLOUDY    28  17  63 E3        30.27F
DES MOINES IA  CLEAR     24  15  68 NE5       30.28F WCI  18
DAVENPORT IA   CLEAR     19  14  81 NW5       30.30S WCI  12
CHICAGO IL     CLOUDY    25  15  66 NW10      30.26R WCI  15
EAU CLAIRE WI  MOCLDY    15   8  73 W3        30.29S
LA CROSSE WI   CLOUDY    21  12  68 N5        30.32R WCI  15
$$

  *****  SOME NATIONAL WEATHER *****

CITY           SKY/WX    TMP DP  RH WIND       PRES   REMARKS
LA GUARDIA NY  LGT RAIN  45  36  70 NW17      29.88S
RALEIGH NC     MOCLDY    46  36  68 CALM      30.07R
ATLANTA GA     MOCLDY    41  36  82 W8        30.18R
NEW ORLEANS LA MOCLDY    51  40  65 CALM      30.19S
OKLAHOMA CITY  DRIZZLE   37  36  93 SE8       30.13R FOG
ALBUQUERQUE NM CLOUDY    39  36  89 S7        30.04R
SALT LAKE CITY MOCLDY    36  29  75 CALM      30.00R
LOS ANGELES CA CLOUDY    60  45  57 W8        30.06S
BOISE ID       CLOUDY    42  34  73 CALM      29.99R
SEATTLE WA     LGT RAIN  47  43  86 CALM      29.87R
$$

*** WEATHER ACROSS MANITOBA...SASKATCHEWAN AND ONTARIO ***
                ***ONTARIO***

CITY           SKY/WX    TMP DP  RH WIND       PRES   REMARKS
GERALDTON      CLEAR      1  -2  85 NW5       30.29R WCI  -8
THUNDER BAY    CLEAR      9   3  78 W6        30.36R WCI  -1
SIOUX LOOKOUT  CLEAR     -8 -11  84 E2        30.34S
TORONTO        LGT SNOW  32  30  93 W14G23    29.96R WCI  22
BIG TROUT LK   CLEAR      1  -2  85 SW8       30.28F WCI -12
PICKLE LAKE    CLEAR      1  -4  78 W3        30.31S
DRYDEN         CLEAR      5   3  92 NE2       30.33R
KENORA         PTCLDY    10   3  72 E9        30.30F WCI  -2
$$
                *** MANITOBA***

CITY           SKY/WX    TMP DP  RH WIND       PRES   REMARKS
BRANDON        PTCLDY     3   0  85 E6        30.25  WCI  -8
DAUPHIN        CLEAR      5   3  92 CALM      30.23F
ISLAND LAKE    CLEAR      3   1  92 S6        30.28F WCI  -8
PILOT MOUND      N/A      3   0  85 SE7         N/A  WCI  -9
THE PAS        FLURRIES  14  10  85 S7        30.15S WCI   4
THOMPSON       FLURRIES  14  10  85 SW10      30.15F WCI   1
WINNIPEG       CLEAR      7   3  85 CALM      30.33F
LYNN LAKE      FLURRIES  14  14 100 S8        30.03F WCI   3
CHURCHILL      CLEAR      9   5  85 SW13      30.01F WCI  -7
GILLAM         FLURRIES  12  10  92 SW10      30.14F WCI  -1
$$
                ***SASKATCHEWAN***

CITY           SKY/WX    TMP DP  RH WIND       PRES   REMARKS
ESTEVAN        FLURRIES  16  12  86 SE12      30.12  WCI   3
KINDERSLEY     MOCLDY    16  14  93 SE9       29.88S WCI   4
LLOYDMINSTER   LGT SNOW  18  16  93 SE10      29.88F FOG     WCI   6
PRINCE ALBERT  FLURRIES  18  14  86 S12       30.05S WCI   5
REGINA         FLURRIES  18  14  86 S16       30.06S WCI   3
YORKTON        CLOUDY     9   5  85 SE8       30.13S WCI  -4
N. BATTLEFORD  CLOUDY    18  16  93 SE9       29.98S WCI   6
LA RONGE       CLOUDY    18  16  93 S12       30.02F WCI   5
SASKATOON      FLURRIES  18  14  86 S13G21    30.02S WCI   4
SWIFT CURRENT  CLOUDY    21  19  93 S17       29.89F FOG     WCI   7
$$
NOTE: THESE ARE AUTOMATED STATIONS WITH LIMITED QUALITY CONTROL
      "FAIR" INDICATES FEW OR NO CLOUDS BELOW 12,000 FEET WITH NO
      SIGNIFICANT WEATHER AND/OR OBSTRUCTIONS TO VISIBILITY.
      SKY/WX - SKY CONDITION AND SIGNIFICANT WEATHER.
      TMP - AIR TEMPERATURE.    DP   - DEWPOINT TEMPERATURE.
      RH  - RELATIVE HUMIDITY.  PRES - PRESSURE.
      HX  - HEAT INDEX.         WCI  - WIND CHILL INDEX.
$


USA.gov is the U.S. government's official web portal to all federal, state and local government web resources and services.